TimeCET,TemperatureF,Dew PointF,Humidity,Sea Level PressureIn,VisibilityMPH,Wind Direction,Wind SpeedMPH,Gust SpeedMPH,PrecipitationIn,Events,Conditions,WindDirDegrees,DateUTC
12:20 AM,64.4,59.0,83,30.18,5.0,North,6.9,-,N/A,,Unknown,360,2012-11-12 23:20:00
12:50 AM,62.6,59.0,88,30.18,5.0,NNW,3.5,-,N/A,,Unknown,340,2012-11-12 23:50:00
1:20 AM,62.6,59.0,88,30.18,5.0,North,3.5,-,N/A,,Unknown,10,2012-11-13 00:20:00
1:50 AM,62.6,59.0,88,30.18,5.0,North,6.9,-,N/A,,Unknown,360,2012-11-13 00:50:00
2:20 AM,62.6,57.2,82,30.18,5.0,North,5.8,-,N/A,,Unknown,350,2012-11-13 01:20:00
2:50 AM,60.8,57.2,88,30.15,5.0,NNW,3.5,-,N/A,,Unknown,330,2012-11-13 01:50:00
3:20 AM,60.8,57.2,88,30.18,5.0,NNW,5.8,-,N/A,,Unknown,330,2012-11-13 02:20:00
3:50 AM,62.6,57.2,82,30.15,5.0,NNE,8.1,-,N/A,,Unknown,30,2012-11-13 02:50:00
4:20 AM,62.6,57.2,82,30.18,5.0,NNE,6.9,-,N/A,,Unknown,20,2012-11-13 03:20:00
4:50 AM,62.6,57.2,82,30.18,5.0,NNE,5.8,-,N/A,,Unknown,20,2012-11-13 03:50:00
5:20 AM,60.8,57.2,88,30.18,5.0,North,5.8,-,N/A,,Unknown,10,2012-11-13 04:20:00
5:50 AM,62.6,55.4,77,30.18,5.0,NNE,8.1,-,N/A,,Unknown,20,2012-11-13 04:50:00
6:50 AM,59.0,55.4,88,30.18,-9999.0,NNW,4.6,-,N/A,,Clear,330,2012-11-13 05:50:00
7:20 AM,60.8,55.4,82,30.18,-9999.0,North,3.5,-,N/A,,Clear,350,2012-11-13 06:20:00
7:50 AM,62.6,57.2,82,30.18,-9999.0,Variable,2.3,-,N/A,,Clear,0,2012-11-13 06:50:00
8:20 AM,64.4,57.2,77,30.21,-9999.0,NNW,4.6,-,N/A,,Clear,340,2012-11-13 07:20:00
8:50 AM,66.2,57.2,73,30.21,-9999.0,NNW,4.6,-,N/A,,Clear,340,2012-11-13 07:50:00
9:20 AM,68.0,57.2,68,30.21,-9999.0,North,4.6,-,N/A,,Clear,350,2012-11-13 08:20:00
9:50 AM,69.8,55.4,60,30.21,-9999.0,North,3.5,-,N/A,,Clear,360,2012-11-13 08:50:00
10:20 AM,71.6,57.2,60,30.21,-9999.0,Variable,1.2,-,N/A,,Clear,0,2012-11-13 09:20:00
10:50 AM,71.6,57.2,60,30.21,-9999.0,Variable,2.3,-,N/A,,Clear,0,2012-11-13 09:50:00
11:20 AM,73.4,57.2,57,30.21,-9999.0,Variable,2.3,-,N/A,,Clear,0,2012-11-13 10:20:00
11:50 AM,73.4,57.2,57,30.18,-9999.0,Variable,2.3,-,N/A,,Clear,0,2012-11-13 10:50:00
12:20 PM,73.4,57.2,57,30.18,-9999.0,NNW,3.5,-,N/A,,Clear,340,2012-11-13 11:20:00
12:50 PM,75.2,57.2,53,30.18,-9999.0,Variable,2.3,-,N/A,,Clear,0,2012-11-13 11:50:00
1:20 PM,75.2,59.0,57,30.15,-9999.0,South,3.5,-,N/A,,Clear,190,2012-11-13 12:20:00
1:50 PM,75.2,59.0,57,30.15,-9999.0,Variable,1.2,-,N/A,,Clear,0,2012-11-13 12:50:00
2:20 PM,77.0,57.2,50,30.15,-9999.0,Variable,1.2,-,N/A,,Clear,0,2012-11-13 13:20:00
2:50 PM,75.2,60.8,61,30.15,-9999.0,South,3.5,-,N/A,,Clear,170,2012-11-13 13:50:00
3:20 PM,73.4,60.8,65,30.15,-9999.0,South,3.5,-,N/A,,Clear,170,2012-11-13 14:20:00
3:50 PM,71.6,59.0,64,30.15,-9999.0,Variable,2.3,-,N/A,,Clear,0,2012-11-13 14:50:00
4:20 PM,69.8,59.0,68,30.15,-9999.0,Variable,1.2,-,N/A,,Clear,0,2012-11-13 15:20:00
4:50 PM,69.8,59.0,68,30.15,-9999.0,ENE,4.6,-,N/A,,Clear,60,2012-11-13 15:50:00
5:20 PM,68.0,57.2,68,30.15,-9999.0,NE,4.6,-,N/A,,Clear,40,2012-11-13 16:20:00
5:50 PM,68.0,57.2,68,30.15,-9999.0,NNE,5.8,-,N/A,,Clear,30,2012-11-13 16:50:00
6:20 PM,68.0,57.2,68,30.15,-9999.0,NNE,5.8,-,N/A,,Clear,30,2012-11-13 17:20:00
6:50 PM,66.2,55.4,68,30.15,-9999.0,North,4.6,-,N/A,,Clear,10,2012-11-13 17:50:00
7:20 PM,66.2,55.4,68,30.18,-9999.0,North,5.8,-,N/A,,Clear,350,2012-11-13 18:20:00
7:50 PM,66.2,55.4,68,30.18,-9999.0,North,4.6,-,N/A,,Clear,360,2012-11-13 18:50:00
8:20 PM,64.4,55.4,73,30.18,-9999.0,NE,4.6,-,N/A,,Clear,50,2012-11-13 19:20:00
8:50 PM,64.4,55.4,73,30.18,-9999.0,Variable,2.3,-,N/A,,Clear,0,2012-11-13 19:50:00
9:20 PM,64.4,55.4,73,30.18,-9999.0,NE,5.8,-,N/A,,Clear,50,2012-11-13 20:20:00
9:50 PM,64.4,55.4,73,30.18,-9999.0,NE,4.6,-,N/A,,Clear,50,2012-11-13 20:50:00
10:20 PM,66.2,53.6,64,30.18,-9999.0,NNE,6.9,-,N/A,,Clear,20,2012-11-13 21:20:00
10:50 PM,64.4,53.6,68,30.18,-9999.0,NNE,8.1,-,N/A,,Clear,30,2012-11-13 21:50:00
11:20 PM,64.4,53.6,68,30.18,-9999.0,NNE,6.9,-,N/A,,Clear,20,2012-11-13 22:20:00
11:50 PM,62.6,53.6,72,30.18,-9999.0,NNE,5.8,-,N/A,,Clear,20,2012-11-13 22:50:00